Regional Weather Roundup
Issued by NWS

Home | Current Version | Previous Version | Graphics & Text | Print | Product List | Glossary On
Versions: 1 2 3 4 5 6 7 8 9 10 11 12 13 14 15 16 17 18 19 20 21 22 23 24 25 26 27 28 29 30 31 32 33 34 35 36 37 38 39 40 41 42 43 44 45 46 47 48 49 50
000
ASUS43 KMPX 300301
RWRMN
WEATHER ROUNDUP FOR MINNESOTA
NATIONAL WEATHER SERVICE TWIN CITIES/CHANHASSEN MN
1000 PM CDT FRI AUG 29 2014


NOTE: "FAIR" INDICATES FEW OR NO CLOUDS BELOW 12,000 FEET WITH NO
SIGNIFICANT WEATHER AND/OR OBSTRUCTIONS TO VISIBILITY. N/A MEANS
CURRENT SKY AND/OR WEATHER CONDITIONS ARE NOT AVAILABLE.

MNZ060>063-068>070-300400-
   Twin Cities Metro

CITY           SKY/WX    TMP DP  RH WIND       PRES   REMARKS
TWIN CITIES    LGT RAIN  70  69  97 N5        29.77R
ST PAUL        CLOUDY    70  68  93 CALM      29.77S
CRYSTAL        CLOUDY    71  68  90 CALM      29.76R FOG
BLAINE         CLOUDY    72  72 100 CALM      29.78R
LAKEVILLE      LGT RAIN  70  64  83 CALM      29.77S
EDEN PRAIRIE   CLOUDY    71  70  96 N3        29.76S
SOUTH ST PAUL  CLOUDY    70  67  90 CALM      29.76S
LAKE ELMO      CLOUDY    68  68 100 E5        29.78S
$$
MNZ001>005-007-008-013>017-022>024-027-028-300400-
   Northwest Minnesota

CITY           SKY/WX    TMP DP  RH WIND       PRES   REMARKS
BEMIDJI        CLOUDY    66  63  90 N9        29.82R
HALLOCK        CLEAR     57  54  88 N10       29.92R
ROSEAU         PTCLDY    57  54  88 N9        29.89R
WARROAD        CLOUDY    59  55  88 N9        29.89R
THIEF RVR FALL CLOUDY    61  55  82 N13       29.88R
CROOKSTON      CLOUDY    61  57  88 N12       29.89R
FOSSTON        CLOUDY    63  59  88 N13       29.85R
DETROIT LAKES  MOCLDY    64  63  94 CALM      29.84R
MOORHEAD       CLOUDY    63  63 100 N13G21    29.85R
PARK RAPIDS    CLOUDY    66  64  93 NW7       29.82R
MAHNOMEN       HVY RAIN  63  62  97 N13       29.83R
$$
MNZ006-009>011-018-025>026-300400-
   North Central Minnesota

CITY           SKY/WX    TMP DP  RH WIND       PRES   REMARKS
BAUDETTE       CLOUDY    60  56  86 N10       29.86R
FLAG ISLAND    PTCLDY    63  57  82 N12       29.87S
INTL FALLS     CLOUDY    63  62  97 N7        29.80F
WASKISH        CLOUDY    63  61  94 N7        29.83R
BIG FORK       MOCLDY    64  63  94 CALM      29.81S FOG
LONGVILLE      CLOUDY    64  63  94 CALM      29.80S FOG
GRAND RAPIDS   CLOUDY    64  61  88 CALM      29.81S
CRANE LAKE     CLOUDY    61  61 100 CALM      29.82R
ORR            CLOUDY    63  59  88 CALM      29.78S
COOK           CLOUDY    63  61  94 CALM      29.81S
WALKER         RAIN      65  65  97 CALM      29.81R
$$
MNZ012-019>021-037-300400-
   Northeast Minnesota

CITY           SKY/WX    TMP DP  RH WIND       PRES   REMARKS
DULUTH         CLOUDY    63  60  90 CALM      29.81R FOG
ELY            CLOUDY    61  59  94 CALM      29.81F
HIBBING        CLOUDY    63  62  97 CALM      29.80F FOG
EVELETH        CLOUDY    63  61  94 CALM      29.82S FOG
DULUTH HARBOR  CLOUDY    63  61  94 NE6       29.80R FOG
TWO HARBORS    CLOUDY    61  55  82 CALM      29.79R HAZE
SILVER BAY     CLOUDY    59  59 100 CALM      29.79R FOG
GRAND MARAIS     N/A     60  59  96 CALM      29.78S
G MARAIS ARPRT CLOUDY    57  55  94 CALM      29.82F
$$
MNZ029>031-032-039>041-046>048-054>057-064-300400-
   West Central Minnesota

CITY           SKY/WX    TMP DP  RH WIND       PRES   REMARKS
FERGUS FALLS   MOCLDY    66  64  94 N6        29.81S
WHEATON        MOCLDY    66  63  88 W6        29.83R
MORRIS         MOCLDY    66  64  94 N5        29.80R
ALEXANDRIA     MOCLDY    67  64  90 N3        29.82R
ELBOW LAKE     CLOUDY    66  65  98 NW3       29.81S
WADENA         CLOUDY    64  63  94 W3        29.80S
GLENWOOD       CLOUDY    66  64  94 NE3       29.81S
APPLETON       MOCLDY    68  64  88 N3        29.80R
BENSON         CLOUDY    66  64  94 CALM      29.80S
ORTONVILLE     MOCLDY    68  64  88 CALM      29.81R
MADISON        MOCLDY    72  68  88 CALM      29.81R
WILLMAR        FAIR      70  66  88 CALM      29.81S
$$
MNZ033>034-036-042>043-049>051-058-059-300400-
   Central Minnesota

CITY           SKY/WX    TMP DP  RH WIND       PRES   REMARKS
ST CLOUD       CLOUDY    70  67  90 CALM      29.78R
SAUK CENTRE    CLOUDY    68  65  91 CALM      29.80S
PAYNESVILLE    RAIN      66  65  97 NW3       29.80S
AITKIN         CLOUDY    68  63  83 CALM      29.79R
PINE RIVER     CLOUDY    64  64 100 CALM      29.84R
BRAINERD       CLOUDY    66  65  96 CALM      29.80R
STAPLES        CLOUDY    66  64  94 NW3       29.80S
LONG PRAIRIE   CLOUDY    66  64  94 CALM      29.81S
LITTLE FALLS   CLOUDY    66  64  94 CALM      29.80R
LITCHFIELD     CLOUDY    70  70 100 CALM      29.80S
BUFFALO        DRIZZLE   69  67  93 CALM      29.79S
MAPLE LAKE     CLOUDY    69  69  98 CALM      29.80R FOG
$$
MNZ037-044-045-052-053-300400-
   East Central Minnesota

CITY           SKY/WX    TMP DP  RH WIND       PRES   REMARKS
PRINCETON      CLOUDY    68  66  94 CALM      29.79R
MORA           CLOUDY    64  64 100 CALM      29.80R
CAMBRIDGE      CLOUDY    72  63  73 CALM      29.77R
RUSH CITY      CLOUDY    68  66  94 CALM      29.79R
MOOSE LAKE     CLOUDY    64  63  94 CALM      29.77F
HINCKLEY       CLOUDY    66  66 100 CALM      29.79R
CLOQUET        FOG       63  61  94 CALM      29.80S VSB 3/4
MCGREGOR       CLOUDY    64  64 100 CALM      29.80S
$$
MNZ071>073-080-081-089-090-097-098-300400-
   Southwest Minnesota

CITY           SKY/WX    TMP DP  RH WIND       PRES   REMARKS
MONTEVIDEO     CLOUDY    68  66  94 CALM      29.81R
GRANITE FALLS  CLOUDY    67  68 100 NW5       29.81S
CANBY          CLOUDY    69  66  91 CALM      29.82S
MARSHALL       CLOUDY    66  64  94 W3        29.79S
REDWOOD FALLS  CLOUDY    66  65  96 CALM      29.79R
OLIVIA         CLOUDY    64  63  94 CALM      29.79S
PIPESTONE      CLOUDY    66  64  94 NW3       29.82S FOG
WINDOM         LGT RAIN  64  64 100 CALM      29.80R
WORTHINGTON    CLOUDY    66  64  94 W8        29.82S
JACKSON        CLOUDY    68  64  88 CALM      29.81R
TRACY          CLOUDY    66  65  96 CALM      29.81R
SLAYTON        CLOUDY    65  65 100 CALM      29.82S
$$
MNZ065>067-074>077-082>085-091>093-300400-
   South Central Minnesota

CITY           SKY/WX    TMP DP  RH WIND       PRES   REMARKS
MANKATO        CLOUDY    70  64  83 NW8       29.79R
NEW ULM        LGT RAIN  66  66 100 CALM      29.78S
ST JAMES       CLOUDY    66  64  94 CALM      29.80R
FAIRMONT       CLOUDY    64  61  88 CALM      29.81R
GLENCOE        LGT RAIN  69  66  90 NW3       29.78R
FARIBAULT      LGT RAIN  73  66  78 W3        29.78R
OWATONNA       LGT RAIN  72  70  94 CALM      29.78R
WASECA         RAIN      68  64  88 NW5       29.80R
ALBERT LEA     TSTM      66  66 100 S5        29.80R
$$
MNZ078>079-086>088-094>096-300400-
   Southeast Minnesota

CITY           SKY/WX    TMP DP  RH WIND       PRES   REMARKS
ROCHESTER      LGT RAIN  66  63  90 NE3       29.79F
RED WING       LGT RAIN  70  68  94 SE12G18   29.74F
STANTON        LGT RAIN  73  69  88 NW5       29.75S
DODGE CENTER   HVY RAIN  66  64  94 S8        29.80S
WINONA         RAIN      68  68 100 NW3       29.78F
AUSTIN         CLOUDY    64  64 100 CALM      29.78S
PRESTON        CLOUDY    65  65 100 CALM      29.80F FOG
$$
ABBREVIATIONS USED IN REMARKS
   TC - TEMPERATURES IN CELSIUS
  WCI - WIND CHILL INDEX
   HX - HEAT INDEX
  VSB - VISIBILITY
$$


USA.gov is the U.S. government's official web portal to all federal, state and local government web resources and services.